Dewpoint
59 59 59 60 60 60 61 61 61 61 62 62 62 62 62 62 62 61 61 61 61 62 61 61 60 60 60 60 60 59 59 50 49 48 43 40 47 61 64 65 62 61 62 36 29 24 25 20 19 16 28 29 32 28 34 41 42 38 32 25 21 22 20 25 18 17 21 15 14 17 17 16 14 16 17 17 18 20 20 19 19 19 22 29 39 45 47 48
59 59 59 59 60 60 61 61 61 61 62 62 62 62 62 62 62 61 62 62 62 61 62 61 60 60 60 60 59 59 56 51 43 47 42 53 65 65 63 63 61 60 53 24 33 30 24 16 22 17 26 19 38 31 38 37 37 30 29 22 21 25 23 26 20 20 15 15 15 16 18 16 15 16 17 15 14 16 15 15 19 17 18 38 44 47 48 50
59 59 59 60 60 60 60 61 61 61 62 62 62 62 62 62 62 62 61 62 62 62 62 61 60 60 60 60 59 59 52 48 46 41 43 65 63 64 64 56 62 58 28 20 36 33 26 23 23 18 26 18 25 27 33 32 34 33 26 23 25 27 23 23 19 17 16 16 15 15 16 16 16 17 19 16 14 15 15 14 16 16 15 21 40 46 48 50
59 60 60 60 60 60 61 61 61 62 62 62 62 62 62 62 62 62 61 61 62 62 61 61 60 60 60 60 59 56 50 39 35 41 40 57 63 63 62 62 61 57 46 42 41 38 33 28 23 20 24 23 28 35 31 32 25 28 25 23 23 25 20 18 20 19 17 17 16 16 19 16 16 17 18 17 15 15 15 16 15 14 14 15 39 45 47 50
59 60 60 60 60 61 61 61 61 61 62 62 62 62 61 62 61 61 61 61 61 62 62 60 60 60 59 59 59 52 44 25 31 38 41 62 61 62 62 60 61 52 45 45 40 33 27 26 23 28 22 15 27 24 27 27 27 25 23 23 22 20 18 18 18 18 17 18 16 16 16 15 19 20 17 17 15 14 13 15 17 16 16 17 38 42 46 48
59 59 59 60 61 61 61 61 61 62 62 62 62 62 61 61 62 61 61 61 61 61 61 60 59 59 59 59 53 52 34 21 30 33 61 62 64 62 60 61 56 45 38 33 31 30 20 21 24 25 20 19 20 18 17 24 25 18 18 19 18 17 16 18 18 19 18 17 16 16 18 17 17 16 17 17 16 16 17 16 15 15 16 15 36 39 44 47
60 60 60 60 60 60 61 61 61 61 62 62 62 62 62 62 62 61 61 60 60 61 61 59 59 59 59 56 51 42 37 36 45 47 57 64 62 63 60 60 54 42 33 29 26 18 26 24 25 25 23 24 22 18 18 25 27 21 17 19 18 19 17 18 17 20 18 16 16 17 19 16 16 15 17 16 16 17 17 17 15 13 15 22 34 35 39 43
60 60 59 59 59 60 60 61 61 61 61 62 62 62 62 62 62 61 60 60 60 60 60 59 59 59 58 47 41 37 36 35 36 48 58 60 54 52 55 46 39 37 32 31 30 19 23 22 25 28 23 22 22 17 22 17 22 19 19 21 20 19 19 21 19 18 18 18 18 19 17 16 17 16 17 16 16 17 16 17 17 15 14 20 25 32 34 36
60 59 59 59 59 59 60 60 61 61 62 62 62 62 62 62 61 61 60 60 60 60 59 59 59 59 57 46 38 32 32 40 41 47 53 48 46 41 40 38 37 27 27 27 27 25 26 25 26 28 27 22 22 18 18 18 16 22 18 20 19 18 17 17 16 16 16 17 19 18 17 17 17 24 17 17 17 17 18 17 16 16 16 16 18 24 31 32
60 59 59 59 59 59 60 60 61 61 62 62 62 62 62 62 61 60 60 60 60 60 59 59 59 58 48 39 38 31 36 35 36 45 47 43 36 33 38 38 34 34 28 32 31 26 27 29 29 33 29 24 24 20 24 21 17 22 20 18 16 16 16 17 17 17 18 17 18 16 16 16 18 18 14 16 16 17 18 19 19 15 14 14 16 20 23 28
60 59 59 59 59 59 60 60 61 61 61 61 62 62 62 61 61 60 60 60 60 59 59 59 57 51 39 36 35 32 40 36 32 37 42 40 39 36 37 35 35 38 32 31 34 36 32 30 35 34 31 22 21 19 19 18 19 17 17 17 17 17 18 18 18 17 18 17 18 17 16 17 18 19 15 16 17 16 16 16 18 16 14 14 15 16 23 22
60 59 59 59 59 59 60 61 60 61 61 61 61 61 61 61 60 60 60 60 59 59 58 58 54 49 38 37 35 35 35 36 33 33 35 36 38 44 42 36 36 37 30 30 33 40 43 36 34 23 27 26 22 20 19 20 19 18 18 16 17 17 17 18 17 18 18 17 19 19 16 15 16 14 16 16 16 17 17 15 16 17 15 15 15 15 18 21
59 59 58 58 59 59 60 60 60 61 61 61 61 60 60 60 60 60 59 60 58 59 58 57 56 51 39 34 34 42 37 34 35 41 42 43 40 40 40 42 40 35 36 30 31 39 43 39 29 23 28 25 21 20 23 20 18 18 18 17 16 18 18 19 19 18 18 17 19 18 17 17 16 15 16 16 17 17 16 15 14 16 16 14 14 15 16 19
59 58 58 58 59 59 60 60 60 60 61 61 61 61 60 60 59 59 59 60 60 59 57 57 48 47 37 35 38 36 39 43 36 33 39 43 37 43 43 45 41 38 40 31 33 38 42 36 35 26 30 23 20 27 19 18 19 16 18 17 18 18 19 20 19 16 17 21 21 17 18 18 18 16 16 17 17 17 16 15 14 16 17 14 15 15 16 17
58 58 58 59 59 59 59 59 60 60 60 60 61 60 59 59 59 59 60 59 59 60 57 56 49 38 34 33 36 38 52 35 29 34 42 32 33 35 37 42 38 39 36 37 41 41 38 39 29 21 18 23 25 19 18 21 23 22 18 20 25 18 19 21 26 16 17 17 17 16 17 16 18 19 17 17 20 19 15 15 14 14 14 13 14 14 14 16
58 58 58 58 59 59 59 59 59 60 60 60 60 59 58 58 58 59 59 59 60 59 52 50 50 38 33 30 33 49 39 36 35 40 43 41 41 32 37 40 38 34 34 32 35 35 32 32 23 22 25 25 18 18 20 21 23 28 18 21 21 23 22 23 23 19 19 17 17 17 18 18 18 19 19 17 20 18 15 15 14 13 12 11 11 12 15 16
58 58 58 58 58 59 59 59 59 59 60 59 59 58 58 58 58 58 59 60 53 55 51 49 47 38 31 36 38 37 37 39 39 37 37 36 40 37 29 35 33 34 33 30 34 29 29 22 27 24 27 21 18 26 19 21 20 22 25 19 24 22 22 21 23 23 21 16 15 16 15 16 18 19 19 17 16 15 14 14 13 13 13 13 13 11 11 14
57 57 57 58 58 58 58 59 59 59 59 59 58 58 57 59 59 55 52 51 51 50 47 47 42 35 30 34 31 34 39 38 40 39 41 35 33 32 30 29 31 30 29 26 30 23 28 25 26 23 28 24 17 21 19 17 20 20 20 20 20 22 23 21 21 23 19 18 15 15 15 15 17 18 20 20 18 16 16 15 14 13 13 14 13 12 11 11
57 57 57 58 58 58 58 59 59 59 59 59 58 59 58 56 52 47 45 44 32 30 30 29 34 30 24 28 36 39 40 41 44 37 36 38 39 33 33 35 33 27 27 25 25 24 30 29 31 25 22 24 21 18 19 21 21 19 21 21 22 22 21 20 21 23 22 21 20 16 18 19 20 20 21 21 18 17 17 15 13 12 12 12 13 14 14 14
56 56 57 57 58 58 58 59 59 59 60 56 52 50 50 44 43 38 44 41 31 29 32 34 38 36 38 38 38 41 43 39 34 36 38 37 35 27 26 28 36 32 24 25 30 26 29 22 21 21 22 21 22 21 20 20 20 20 22 23 21 22 22 23 22 23 21 21 20 21 20 20 21 21 21 22 22 20 18 17 17 16 15 15 16 16 17 16
56 56 57 57 57 58 58 59 59 59 59 52 51 50 47 44 39 31 42 43 43 41 42 42 41 39 37 39 42 36 33 34 34 35 35 36 31 25 23 21 27 23 26 29 25 30 29 24 25 26 24 23 23 23 22 22 22 21 23 22 21 24 22 22 22 23 21 22 20 21 21 21 21 21 22 22 23 23 22 20 20 19 18 19 18 19 20 20
56 56 57 57 57 57 58 59 59 59 56 51 50 47 45 44 45 45 41 39 41 42 42 43 42 40 41 40 41 37 36 31 29 35 38 34 25 23 23 21 24 20 25 27 26 26 24 24 23 24 25 25 24 24 24 23 23 24 23 23 23 22 24 23 22 22 24 24 21 21 21 21 21 22 22 23 23 24 25 25 24 24 23 23 23 22 23 24
55 56 56 56 56 57 58 58 58 57 50 50 48 45 46 46 44 44 41 39 40 41 40 40 38 38 38 38 33 33 27 28 27 33 34 29 23 25 25 21 23 22 27 23 22 22 23 25 26 25 26 24 24 23 23 22 24 21 20 20 20 23 21 20 21 21 21 22 21 21 20 22 22 23 23 24 24 25 28 28 28 27 25 25 24 24 25 25
55 55 55 55 56 56 58 58 57 54 50 49 48 47 47 44 43 42 40 37 35 34 39 40 39 39 38 35 36 29 27 27 27 27 30 26 23 25 23 22 20 21 18 18 20 22 20 20 21 24 24 24 23 23 22 21 20 25 24 22 21 22 22 22 20 21 25 25 26 24 23 23 24 24 24 24 25 26 25 25 27 28 30 29 30 30 30 28
54 53 54 54 55 56 57 57 51 52 51 47 44 46 44 42 43 42 40 35 29 36 41 42 40 41 41 40 40 26 29 27 28 28 27 25 23 22 21 22 19 17 18 18 20 23 21 22 25 25 26 25 25 23 24 25 22 23 25 25 24 24 23 24 25 24 24 23 25 25 22 22 24 24 25 25 25 24 25 24 24 24 25 26 26 26 27 30
53 53 53 53 54 56 57 49 47 52 47 48 48 46 43 42 42 42 36 28 22 28 33 34 41 35 36 26 37 32 28 25 30 32 30 27 29 24 21 22 18 21 20 22 20 21 19 25 24 23 24 26 26 25 26 26 23 23 23 25 26 26 26 25 25 24 21 22 24 27 22 21 24 24 24 24 25 25 25 25 24 25 25 25 26 26 26 26
53 53 53 53 54 56 49 43 48 48 45 47 47 44 42 42 43 42 30 19 14 29 26 35 37 35 32 31 30 32 28 29 30 23 24 30 23 26 22 23 21 20 19 24 24 23 27 25 24 25 24 24 23 21 24 26 25 23 25 26 26 26 26 26 26 26 25 26 28 27 26 23 24 24 25 25 24 24 23 23 24 24 25 25 26 26 26 27
53 52 52 53 54 57 53 53 51 50 51 50 46 45 43 42 42 42 19 11 8 31 31 28 35 38 33 33 33 25 26 27 27 27 21 25 23 22 22 20 21 21 21 23 21 25 24 25 24 24 23 24 23 25 26 28 24 23 26 27 27 26 26 27 26 25 26 24 23 23 25 22 22 23 24 24 23 23 23 23 23 23 24 25 26 26 26 26
52 52 52 52 53 57 56 54 50 48 49 49 46 46 45 43 43 21 14 6 20 19 34 27 36 34 31 35 30 29 26 26 22 25 29 23 26 22 19 20 20 19 20 20 19 23 25 23 24 24 24 21 24 23 24 27 24 27 27 28 28 27 26 26 24 24 23 22 22 22 24 22 21 23 23 23 23 23 23 22 21 23 24 25 26 26 27 26
51 51 51 51 53 54 54 53 50 49 48 47 47 46 45 45 33 19 14 2 23 14 31 32 36 33 34 29 27 28 23 24 25 23 23 20 23 23 21 21 19 19 22 24 23 23 22 29 29 23 22 25 24 24 25 26 27 27 25 25 26 25 25 25 24 23 18 20 22 23 24 23 21 22 22 23 23 21 20 20 21 22 24 25 25 25 27 27
51 51 51 51 50 53 52 48 50 48 47 48 47 47 44 32 24 14 3 15 24 25 33 33 33 34 30 29 22 26 28 28 29 26 24 23 21 23 23 23 29 23 24 22 23 24 25 28 26 27 32 28 26 27 27 26 27 25 23 23 23 24 24 22 22 21 18 19 23 23 23 24 20 20 24 23 23 23 22 22 22 23 24 24 25 26 27 26
50 51 51 48 49 52 48 44 49 48 50 49 49 46 16 -7 19 12 11 23 13 19 29 29 33 31 30 29 27 21 21 24 25 25 24 23 24 23 25 23 23 23 22 24 25 26 26 26 28 28 31 29 27 27 27 29 27 25 24 25 24 22 24 22 21 17 19 20 22 22 23 21 21 21 22 22 22 22 22 22 22 23 24 25 26 26 28 29
50 51 52 49 49 50 51 48 49 50 50 49 46 30 8 8 2 14 19 22 5 28 28 33 32 30 29 25 20 24 28 24 26 26 25 25 27 27 27 24 25 23 22 24 24 25 26 27 27 27 27 30 30 25 25 27 26 26 26 25 22 21 21 19 22 22 22 24 24 24 24 22 23 24 24 23 24 23 23 24 25 26 26 26 26 27 28 29
51 52 48 47 49 50 51 51 52 51 53 49 36 17 15 7 9 33 20 25 22 31 34 32 31 28 25 20 22 27 25 28 26 23 27 25 26 26 26 24 24 24 23 25 24 23 22 20 25 27 25 28 28 27 29 28 25 26 26 25 25 21 20 17 19 18 19 21 24 26 24 20 22 22 25 25 24 24 25 25 26 28 27 28 28 28 28 29
52 50 47 47 50 51 51 52 51 52 53 43 27 17 -4 7 13 12 18 24 27 32 32 32 28 25 23 26 27 27 26 24 27 27 27 23 22 24 22 24 30 27 27 24 25 23 22 23 24 29 29 29 27 28 28 26 26 28 24 24 22 22 23 20 22 22 22 22 22 23 21 22 22 27 29 28 28 28 27 35 33 30 30 30 28 27 27 29
49 46 50 50 50 50 51 51 51 52 46 32 26 12 -4 10 -0 20 23 30 32 31 32 29 25 21 23 23 24 25 28 20 21 23 20 24 26 24 24 26 27 30 28 25 26 24 23 22 25 30 31 27 25 27 27 28 25 25 26 24 22 27 25 25 24 25 25 23 21 25 23 24 26 25 27 29 30 32 37 33 32 29 27 24 21 21 21 22
45 46 46 49 49 51 52 51 52 52 43 24 15 -3 19 22 15 24 36 32 32 31 27 25 26 21 21 21 22 23 23 20 21 22 19 24 25 25 24 26 32 32 32 29 26 27 25 25 30 29 25 25 28 27 30 28 29 26 20 21 27 29 27 23 21 22 22 20 18 21 20 21 22 19 31 29 31 33 35 34 29 25 20 16 15 14 13 14
45 46 49 49 50 52 53 52 52 51 44 30 7 32 29 21 33 27 32 31 31 30 28 27 27 24 22 22 21 20 20 16 16 22 23 25 23 27 27 26 29 31 32 32 26 27 32 26 25 25 26 28 30 28 25 26 28 25 23 25 25 21 22 23 23 18 19 18 20 21 19 19 18 19 28 26 30 33 34 30 22 13 9 9 8 7 9 15
47 45 44 49 51 53 52 52 51 45 36 21 25 14 29 30 34 31 33 32 31 28 26 26 26 26 22 20 21 19 18 17 20 22 23 24 21 26 29 29 27 28 28 31 28 29 30 27 26 27 26 29 27 23 18 19 25 28 31 28 27 26 25 23 25 24 22 17 16 15 18 17 29 24 20 25 34 34 18 6 4 3 2 1 5 11 15 14
44 38 40 51 51 52 53 51 46 40 33 15 26 24 27 31 33 36 32 33 30 27 25 25 25 21 22 21 19 18 21 21 22 24 25 26 25 28 26 26 23 23 25 30 30 30 27 30 24 26 28 26 21 22 22 24 25 23 22 19 19 21 22 22 20 19 17 17 16 15 12 16 20 12 23 34 22 3 1 2 1 -0 2 3 7 11 14 16
41 32 36 48 50 52 51 46 41 34 31 31 30 29 31 30 35 36 34 33 30 31 28 25 24 22 21 21 23 21 22 24 23 21 24 23 22 19 24 22 23 22 26 28 27 29 21 26 20 20 20 20 20 22 25 21 18 17 15 13 15 16 18 18 16 24 23 13 9 8 5 8 5 20 28 1 -1 1 1 0 2 4 4 8 11 12 13 16
29 14 34 48 50 52 45 35 35 39 37 34 30 35 36 41 32 32 31 32 30 29 31 27 26 25 24 24 24 25 24 22 21 21 23 20 23 22 24 23 22 23 25 24 23 28 21 24 22 18 18 18 20 20 18 18 18 16 17 18 23 21 17 12 8 10 11 8 9 8 4 3 28 14 3 4 4 3 4 7 7 9 10 11 13 14 15 16
30 32 47 49 50 49 41 31 34 37 36 36 36 33 35 34 32 32 28 29 25 29 28 27 28 21 23 24 21 22 22 21 21 21 21 21 22 26 25 22 23 22 24 23 21 20 24 17 16 15 15 15 14 14 15 17 21 18 14 15 11 8 11 11 11 9 8 8 7 5 4 4 8 9 8 6 7 9 11 11 12 12 13 15 17 19 20 20
40 42 43 49 45 43 26 13 18 32 34 35 36 35 32 35 29 28 26 26 25 24 26 24 24 22 21 23 21 18 22 16 21 22 21 24 24 27 24 21 20 20 19 23 18 24 15 17 13 11 8 4 3 4 6 13 11 6 7 9 10 10 10 10 12 12 7 7 6 5 3 5 10 9 9 10 11 12 13 13 15 16 20 22 23 24 24 26
35 38 41 40 44 40 31 30 21 26 32 30 29 27 27 27 28 26 25 25 28 25 22 21 23 25 23 24 22 22 23 20 18 24 23 23 23 25 25 22 21 20 22 27 29 28 22 18 14 8 4 2 -1 -2 1 6 9 9 9 8 10 10 8 11 7 8 7 8 8 8 7 8 9 11 12 13 14 14 15 17 25 25 24 24 25 25 26 29
33 16 36 34 39 38 37 36 35 32 30 28 26 25 26 24 25 28 27 23 25 23 21 23 24 24 23 22 22 21 20 23 21 22 21 19 23 23 23 22 21 20 25 28 29 21 12 16 14 12 11 9 8 8 10 12 9 7 8 9 10 12 13 13 13 11 9 10 10 11 11 11 12 13 14 14 16 16 22 25 26 26 25 24 24 24 26 31
32 20 30 27 38 36 31 34 34 30 26 26 19 25 24 25 25 25 27 16 24 24 23 23 23 21 21 21 20 20 22 20 21 20 19 20 19 21 22 21 21 22 27 25 28 16 14 13 12 12 13 11 10 10 10 12 10 10 11 10 12 13 15 14 12 11 12 12 9 12 13 14 15 18 18 18 19 24 26 25 26 24 23 23 23 24 28 32
19 25 36 36 28 27 29 27 33 31 29 29 25 28 26 26 26 24 26 25 26 24 19 21 23 23 22 21 21 17 20 18 18 17 19 19 20 20 19 20 19 23 24 19 22 17 15 12 12 13 11 12 11 11 13 14 13 12 12 12 12 14 15 13 13 14 13 12 10 14 17 17 17 16 17 21 27 29 26 26 25 22 22 23 22 24 29 35
28 31 34 34 25 30 32 32 33 31 30 32 32 30 28 27 27 26 24 24 23 20 22 17 22 23 22 22 20 18 19 12 10 18 17 17 19 19 17 18 20 20 19 17 18 16 16 14 14 14 13 13 13 14 14 13 13 13 13 13 13 13 13 13 13 13 13 14 18 18 17 13 11 13 24 23 27 28 25 24 22 23 19 19 20 25 33 35
30 25 28 33 32 29 29 29 30 31 31 34 30 30 30 29 26 25 24 25 20 21 23 22 22 21 21 21 20 17 16 18 19 19 21 20 18 19 17 17 15 16 18 17 18 17 15 12 16 14 13 13 14 15 14 14 13 11 12 12 13 13 14 14 14 15 19 16 12 7 7 10 14 21 19 18 28 24 21 20 19 15 15 17 21 30 34 34
35 38 34 30 28 29 28 28 28 29 28 27 28 29 25 25 22 24 23 25 22 21 23 20 20 21 21 20 19 19 21 21 21 21 21 21 17 19 18 15 18 17 17 17 17 16 17 15 16 15 12 11 12 12 12 12 12 11 11 12 12 11 11 13 14 10 5 3 3 7 12 13 14 12 10 18 24 22 19 14 12 12 14 17 26 32 34 32
36 36 36 28 22 32 23 27 26 24 24 26 27 27 19 21 23 23 19 24 24 23 22 22 21 20 20 18 18 20 22 22 22 23 21 20 21 20 20 19 19 18 18 18 18 18 17 16 14 14 11 11 12 12 12 12 12 12 11 9 11 11 7 3 2 2 2 5 9 10 9 9 8 10 10 17 22 20 15 11 10 11 13 19 29 33 33 31